Tracking 28926 objects as of 23-May-2024
HD Live streaming from Space Station
objects crossing your sky now

STARLINK-5766

Track STARLINK-5766 now!
10-day predictions
STARLINK-5766 is classified as:


NORAD ID: 56025
Int'l Code: 2023-042AR
Perigee: 565.7 km
Apogee: 566.8 km
Inclination: 43.0 °
Period: 95.8 minutes
Semi major axis: 6937 km
RCS: Unknown
Launch date: March 24, 2022
Source: United States (US)
Launch site: AIR FORCE EASTERN TEST RANGE (AFETR)
Your satellite tracking list
Your tracking list is empty




NASA's NSSDC Master Catalog

Two Line Element Set (TLE):
1 56025U 23042AR  24144.01167031  .00002753  00000-0  21881-3 0  9993
2 56025  42.9979   6.3519 0000815  52.5715 307.5201 15.02534589 64429
Source of the keplerian elements: AFSPC